Location: Bougoura
(13.1861°N, 5.0773°W)
Time: 10:44:12
(UTC+00:00)

Okean O Rocket - Pass Details

Date: 18 January 2021
Orbit: 622 x 645 km, 98.2° (Epoch: 25 February)

Event Time Altitude Azimuth Distance (km) Brightness Sun altitude
Rises 18:54:51 0° 190° (S) 2,943 5.5 -10.1°
Reaches altitude 10° 18:57:19 10° 202° (SSW) 2,035 4.8 -10.6°
Maximum altitude 19:01:04 27° 260° (W) 1,235 4.1 -11.5°
Drops below altitude 10° 19:04:50 10° 318° (NW) 2,036 4.5 -12.4°
Sets 19:07:18 0° 330° (NNW) 2,944 5.2 -12.9°
